Regional Weather Roundup
Issued by NWS

Home | Current Version | Previous Version | Graphics & Text | Print | Product List | Glossary On
Versions: 1 2 3 4 5 6 7 8 9 10 11 12 13 14 15 16 17 18 19 20 21 22 23 24 25 26 27 28 29 30 31 32 33 34 35 36 37 38 39 40 41 42 43 44 45 46 47 48 49 50
000
ASUS43 KLOT 051006
RWRIL

ILLINOIS REGIONAL WEATHER ROUNDUP
NATIONAL WEATHER SERVICE CHICAGO/ROMEOVILLE IL
400 AM CST THU MAR 05 2015

NOTE: "FAIR" INDICATES FEW OR NO CLOUDS BELOW 12,000 FEET WITH NO
SIGNIFICANT WEATHER AND/OR OBSTRUCTIONS TO VISIBILITY.

* THESE STATIONS ARE NOT UNDER NWS QUALITY CONTROL. THEY ALSO MAY NOT
  REPORT WEATHER SUCH AS PRECIPITATION OR FOG.

ILZ001-002-007-009-015-016-024-051100-
NORTHWEST ILLINOIS

CITY           SKY/WX    TMP DP  RH WIND       PRES   REMARKS
MOLINE         CLEAR      5  -5  63 NW8       30.43S WCI  -8
STERLING*      CLEAR      3  -2  78 NW5       30.40R WCI  -6
SAVANNA*       CLEAR      2  -4  73 NW5       30.42R WCI  -7
$$

ILZ003-004-008-010-011-017-018-051100-
NORTH CENTRAL ILLINOIS

CITY           SKY/WX    TMP DP  RH WIND       PRES   REMARKS
ROCKFORD       PTCLDY     3  -6  66 N5        30.40R WCI  -6
FREEPORT*      CLEAR      1  -7  71 NW6       30.40R WCI -11
ROCHELLE*      CLEAR      2  -5  72 NW3       30.39R
DE KALB*       PTCLDY    -1  -8  75 NW8       30.36S WCI -16
PERU*          MOCLDY     5  -2  72 NW8       30.40R WCI  -8
$$

ILZ005-006-012>014-019>023-051100-
NORTHEAST ILLINOIS

CITY           SKY/WX    TMP DP  RH WIND       PRES   REMARKS
CHICAGO-OHARE  CLOUDY     8  -6  52 N9        30.36R WCI  -5
CHICAGO-MIDWAY CLOUDY    12  -4  48 N10       30.37R WCI  -1
AURORA         MOCLDY     1  -7  68 NW7       30.38R WCI -12
LANSING*       PTCLDY    12  -1  55 NW7       30.35S WCI   1
JOLIET*        MOCLDY     8  -2  64 NW3       30.38R
WAUKEGAN       PTCLDY     3 -10  54 NW6       30.36R WCI  -8
DUPAGE AIRPORT MOCLDY     6  -5  60 N6        30.35R WCI  -4
KANKAKEE*      PTCLDY     6  -1  74 W6        30.38R WCI  -4
WHEELING       MOCLDY     6  -5  60 NW6       30.38R WCI  -4
MORRIS*        MOCLDY     7   0  73 NW6       30.37S WCI  -4
ROMEOVILLE*    MOCLDY     9  -3  57 N7        30.37R WCI  -2
NORTHERLY ISL    N/A     14   1  56 NW9         N/A  WCI   2
$$

LMZ740>746-051100-
SOUTHERN LAKE MICHIGAN

STATION/POSITION SKY/WX   TEMP    WIND        PRES    VSBY  WAVE
                          AIR SEA DIR/SP/G                  HT/PER
                          (F)     (DEG/KT/KT) (MB)    (MI)  (FT/S)
WAUKEGAN HARBOR             7                   N/A
HARRISON CRIB              14     340/ 17/ 21   N/A
BURNHAM HARBOR             14     310/ 10/ 14   N/A
CALUMET HARBOR             14     310/  8/ 13 1026.4F
MICHIGAN CITY              16     320/ 12/ 14   N/A
$$

ILZ025>027-034>036-040-047-049-050-058-095>099-051100-
WEST-CENTRAL ILLINOIS

CITY           SKY/WX    TMP DP  RH WIND       PRES   REMARKS
QUINCY         MOCLDY    11   4  73 N6        30.42R WCI   1
GALESBURG*     CLEAR      5  -1  74 NW5       30.41S WCI  -4
MACOMB*        PTCLDY     9   3  76 N7        30.45R WCI  -2
JACKSONVILLE*  CLOUDY    15   5  64 N8        30.41S WCI   4
PITTSFIELD*    CLOUDY    15   5  66 N5        30.43S WCI   7
$$

ILZ028>032-037-038-041>044-048-051>054-059>061-051100-
CENTRAL ILLINOIS

CITY           SKY/WX    TMP DP  RH WIND       PRES   REMARKS
PONTIAC        MOCLDY     9   2  75 NW7       30.41R WCI  -3
BLOOMINGTON    MOCLDY    10   1  67 N13       30.38R WCI  -5
DECATUR        PTCLDY     9   0  67 N12       30.37F WCI  -6
PEORIA         MOCLDY    11  -1  58 N8        30.42R WCI  -1
LACON*         MOCLDY     7  -1  70 NW3       30.41S
LINCOLN*       MOCLDY    14   3  61 N10       30.43R WCI   1
SPRINGFIELD    MOCLDY    13   2  61 N7        30.41S WCI   3
TAYLORVILLE    CLEAR     10   1  67 N12       30.39F WCI  -4
$$

ILZ033-039-045-046-055>057-062-063-051100-
EAST-CENTRAL ILLINOIS

CITY           SKY/WX    TMP DP  RH WIND       PRES   REMARKS
CHAMPAIGN      PTCLDY     8  -1  66 N13       30.35F WCI  -8
DANVILLE*      PTCLDY     6  -1  70 NW10      30.32R WCI  -8
RANTOUL*       PTCLDY     7   0  73 NW8       30.37R WCI  -6
MATTOON        FAIR      11   2  67 N13       30.35S WCI  -4
PARIS*         MOCLDY    13   4  68 NW6       30.36R WCI   4
$$

ILZ079-100>102-051100-
SOUTHWEST ILLINOIS

CITY           SKY/WX    TMP DP  RH WIND       PRES   REMARKS
ALTON          PTCLDY    16   3  57 CALM      30.43R
BELLEVILLE     MOCLDY    19   6  57 NE9       30.43R WCI   8
CAHOKIA*       MOCLDY    20   7  57 N8        30.44R WCI  10
SPARTA*        MOCLDY    19   6  55 N10G16    30.42R WCI   8
$$

ILZ064>066-069>071-074>076-080>082-084>086-088>090-092>094-051100-
SOUTH-CENTRAL ILLINOIS

CITY           SKY/WX    TMP DP  RH WIND       PRES   REMARKS
CARBONDALE     MOCLDY    20   6  55 N10       30.39R WCI   9
CAIRO*         CLOUDY    23  13  64 N8        30.35R WCI  14
EFFINGHAM*     PTCLDY    15   0  52 N10G17    30.39S WCI   2
MARION         MOCLDY    21   9  58 CALM      30.39R
MT. VERNON     CLOUDY    19   1  45 N9        30.38R WCI   9
CENTRALIA*     CLOUDY    19   7  59 N10G16    30.40R WCI   7
SALEM*         CLOUDY    20   8  59 N10G18    30.39R WCI   8
METROPOLIS*    CLOUDY    21  11  66 N7        30.34R WCI  12
$$

ILZ067-068-072-073-078-083-087-091-051100-
SOUTHEAST ILLINOIS

CITY           SKY/WX    TMP DP  RH WIND       PRES   REMARKS
LAWRENCEVILLE  CLOUDY    19   9  65 N13       30.35R WCI   6
FLORA*         CLOUDY    18   8  64 N13       30.37F WCI   4
FAIRFIELD*     MOCLDY    19   7  61 N12       30.35S WCI   6
HARRISBURG*    MOCLDY    20   5  52 N10G17    30.37R WCI   9
ROBINSON*      CLOUDY    17   9  70 N12       30.37S WCI   4
CARMI*         CLOUDY    21  10  62 N10       30.34S WCI  10
$$

ABBREVIATIONS USED IN REMARKS
   TC - TEMPERATURE IN CELSIUS
  WCI - WIND CHILL INDEX
   HX - HEAT INDEX
  VSB - VISIBILITY
$$



USA.gov is the U.S. government's official web portal to all federal, state and local government web resources and services.